Time,TemperatureF,DewpointF,PressureIn,WindDirection,WindDirectionDegrees,WindSpeedMPH,WindSpeedGustMPH,Humidity,HourlyPrecipIn,Conditions,Clouds,dailyrainin,SoftwareType,DateUTC
2013-02-16 00:00:00,21.0,-99.9,-100.00,WSW,246,14.0,20.0,-999,-99.99,,,-99.99,,2013-02-16 07:00:00,
2013-02-16 00:32:00,21.0,-99.9,-100.00,WSW,246,14.0,20.0,-999,-99.99,,,-99.99,,2013-02-16 07:32:00,
2013-02-16 00:42:00,21.0,-99.9,-100.00,WSW,246,14.0,20.0,-999,-99.99,,,-99.99,,2013-02-16 07:42:00,
2013-02-16 00:53:00,21.0,-99.9,-100.00,WSW,246,14.0,20.0,-999,-99.99,,,-99.99,,2013-02-16 07:53:00,
2013-02-16 04:00:00,21.0,-99.9,-100.00,WSW,248,14.0,20.0,-999,-99.99,,,-99.99,,2013-02-16 11:00:00,
2013-02-16 04:32:00,21.0,-99.9,-100.00,WSW,248,14.0,20.0,-999,-99.99,,,-99.99,,2013-02-16 11:32:00,
2013-02-16 04:42:00,21.0,-99.9,-100.00,WSW,248,14.0,20.0,-999,-99.99,,,-99.99,,2013-02-16 11:42:00,
2013-02-16 04:52:00,21.0,-99.9,-100.00,WSW,248,14.0,20.0,-999,-99.99,,,-99.99,,2013-02-16 11:52:00,
2013-02-16 08:00:00,24.0,-99.9,-100.00,WSW,257,12.0,20.0,-999,-99.99,,,-99.99,,2013-02-16 15:00:00,
2013-02-16 08:32:00,24.0,-99.9,-100.00,WSW,257,12.0,20.0,-999,-99.99,,,-99.99,,2013-02-16 15:32:00,
2013-02-16 08:42:00,24.0,-99.9,-100.00,WSW,257,12.0,20.0,-999,-99.99,,,-99.99,,2013-02-16 15:42:00,
2013-02-16 08:52:00,24.0,-99.9,-100.00,WSW,257,12.0,20.0,-999,-99.99,,,-99.99,,2013-02-16 15:52:00,
2013-02-16 10:00:00,26.0,-99.9,-100.00,WSW,253,12.0,22.0,-999,-99.99,,,-99.99,,2013-02-16 17:00:00,
2013-02-16 10:32:00,26.0,-99.9,-100.00,WSW,253,12.0,22.0,-999,-99.99,,,-99.99,,2013-02-16 17:32:00,
2013-02-16 10:42:00,26.0,-99.9,-100.00,WSW,253,12.0,22.0,-999,-99.99,,,-99.99,,2013-02-16 17:42:00,
2013-02-16 10:52:00,26.0,-99.9,-100.00,WSW,253,12.0,22.0,-999,-99.99,,,-99.99,,2013-02-16 17:52:00,
2013-02-16 12:00:00,28.0,-99.9,-100.00,WSW,252,11.0,20.0,-999,-99.99,,,-99.99,,2013-02-16 19:00:00,
2013-02-16 12:32:00,28.0,-99.9,-100.00,WSW,252,11.0,20.0,-999,-99.99,,,-99.99,,2013-02-16 19:32:00,
2013-02-16 12:42:00,28.0,-99.9,-100.00,WSW,252,11.0,20.0,-999,-99.99,,,-99.99,,2013-02-16 19:42:00,
2013-02-16 12:52:00,28.0,-99.9,-100.00,WSW,252,11.0,20.0,-999,-99.99,,,-99.99,,2013-02-16 19:52:00,
2013-02-16 14:00:00,30.0,-99.9,-100.00,WSW,252,9.0,21.0,-999,-99.99,,,-99.99,,2013-02-16 21:00:00,
2013-02-16 14:32:00,30.0,-99.9,-100.00,WSW,252,9.0,21.0,-999,-99.99,,,-99.99,,2013-02-16 21:32:00,
2013-02-16 14:42:00,30.0,-99.9,-100.00,WSW,252,9.0,21.0,-999,-99.99,,,-99.99,,2013-02-16 21:42:00,
2013-02-16 14:52:00,30.0,-99.9,-100.00,WSW,252,9.0,21.0,-999,-99.99,,,-99.99,,2013-02-16 21:52:00,
2013-02-16 16:00:00,32.0,-99.9,-100.00,West,260,8.0,18.0,-999,-99.99,,,-99.99,,2013-02-16 23:00:00,
2013-02-16 16:32:00,32.0,-99.9,-100.00,West,260,8.0,18.0,-999,-99.99,,,-99.99,,2013-02-16 23:32:00,
2013-02-16 16:42:00,32.0,-99.9,-100.00,West,260,8.0,18.0,-999,-99.99,,,-99.99,,2013-02-16 23:42:00,
2013-02-16 16:52:00,32.0,-99.9,-100.00,West,260,8.0,18.0,-999,-99.99,,,-99.99,,2013-02-16 23:52:00,
2013-02-16 20:00:00,27.0,-99.9,-100.00,WSW,254,13.0,23.0,-999,-99.99,,,-99.99,,2013-02-17 03:00:00,
2013-02-16 20:32:00,27.0,-99.9,-100.00,WSW,254,13.0,23.0,-999,-99.99,,,-99.99,,2013-02-17 03:32:00,
2013-02-16 20:42:00,27.0,-99.9,-100.00,WSW,254,13.0,23.0,-999,-99.99,,,-99.99,,2013-02-17 03:42:00,
2013-02-16 20:52:00,27.0,-99.9,-100.00,WSW,254,13.0,23.0,-999,-99.99,,,-99.99,,2013-02-17 03:52:00,
2013-02-16 22:00:00,27.0,-99.9,-100.00,WSW,248,11.0,20.0,-999,-99.99,,,-99.99,,2013-02-17 05:00:00,
2013-02-16 22:33:00,27.0,-99.9,-100.00,WSW,248,11.0,20.0,-999,-99.99,,,-99.99,,2013-02-17 05:33:00,
2013-02-16 22:42:00,27.0,-99.9,-100.00,WSW,248,11.0,20.0,-999,-99.99,,,-99.99,,2013-02-17 05:42:00,
2013-02-16 22:52:00,27.0,-99.9,-100.00,WSW,248,11.0,20.0,-999,-99.99,,,-99.99,,2013-02-17 05:52:00,